Content
SEND FEEDBACK

Daily
Averages
Monthly
Summary
United States of America

LIVONIA, MICHIGAN


Home > North America > United States > Michigan
Elevation: 778 feet     Latitude: 42 13N     Longitude: 083 31W

WEATHER
 
SELECT A DAY
Number of Records: 205,798;   Date Range: 1/1/95 - 10/24/14
 
SHARE

PRINT THIS DATA

[ ← Previous Day ]
WEATHER ALMANAC - AUGUST 8, 2014
[ Next Day → ]
[ °C ]   °F
Weather ElementAverageHighLow
Temperature72.8 °F84.9 °F (1:53 pm)61 °F (5:53 am)
Dewpoint56.8 °F63 °F (12:01 am)51.1 °F (5:53 pm)
Humidity59.2 %81 % (12:01 am)37 % (4:53 pm)
Barometer30.12 in30.17 in (9:26 am)30.09 in (5:53 am)
Wind Speed5.3 mph11.5 mph (5:53 pm)
Wind Gust17.3 mph (3:53 pm)
Weather ElementAverage
Visibility9.6 mi
Wind DirectionNE (47.1 °)

Weather ElementTotal
Precipitation---
Cooling Degree Days8 (Base 65)
Growing Degree Days23 (Base 50)
Averaged from 28 records on August 8, 2014
WEATHER CONDITIONS BREAKOUT
WIND DIRECTION BREAKOUT
WEATHER BY HOUR - AUGUST 8, 2014
[ °C ]   °F
Local TimeTemperatureDewpointHumidityBarometerVisibilityWind DirectionWind SpeedGust SpeedPrecipitationEventsConditions
12:53 AM68.0 °F55.0 °F63 %30.12 in10.0 miNE (50°)4.6 mphMostly Cloudy
1:53 AM66.9 °F55.0 °F66 %30.11 in10.0 miNNE (20°)4.6 mphClear
2:53 AM64.9 °F55.0 °F70 %30.11 in10.0 miNorth (10°)3.5 mphScattered Clouds
3:53 AM66.0 °F55.9 °F70 %30.11 in10.0 miCalmOvercast
4:53 AM63.0 °F55.9 °F78 %30.12 in10.0 miCalmClear
5:53 AM61.0 °F55.0 °F81 %30.12 in10.0 miCalmClear
6:53 AM62.1 °F55.9 °F80 %30.13 in8.0 miNNE (30°)3.5 mphClear
7:53 AM64.0 °F57.9 °F80 %30.14 in7.0 miNNE (30°)4.6 mphClear
8:53 AM69.1 °F59.0 °F70 %30.16 in7.0 miNE (50°)5.8 mphClear
9:26 AM72.0 °F61.0 °F68 %30.17 in8.0 miNE (50°)5.8 mphMostly Cloudy
9:50 AM75.2 °F62.6 °F65 %30.17 in9.0 miENE (70°)6.9 mphPartly Cloudy
9:53 AM75.0 °F62.1 °F64 %30.15 in9.0 miNE (50°)5.8 mphPartly Cloudy
10:53 AM77.0 °F63.0 °F62 %30.14 in10.0 miEast (90°)8.1 mphClear
11:53 AM79.0 °F62.1 °F56 %30.14 in10.0 miVariable5.8 mphScattered Clouds
12:34 PM82.0 °F60.1 °F47 %30.15 in10.0 miVariable5.8 mphMostly Cloudy
12:41 PM81.0 °F60.1 °F49 %30.15 in10.0 miESE (110°)6.9 mphMostly Cloudy
12:53 PM82.9 °F59.0 °F44 %30.13 in10.0 miEast (100°)6.9 mph17.3 mphScattered Clouds
1:53 PM82.9 °F59.0 °F44 %30.12 in10.0 miVariable6.9 mphPartly Cloudy
2:53 PM81.0 °F55.9 °F42 %30.11 in10.0 miESE (110°)5.8 mphMostly Cloudy
3:53 PM84.9 °F55.9 °F37 %30.09 in10.0 miVariable6.9 mphMostly Cloudy
4:53 PM82.0 °F55.0 °F39 %30.09 in10.0 miENE (60°)9.2 mphPartly Cloudy
5:53 PM81.0 °F54.0 °F39 %30.09 in10.0 miENE (70°)11.5 mphClear
6:53 PM79.0 °F51.1 °F38 %30.09 in10.0 miEast (100°)9.2 mphPartly Cloudy
7:53 PM75.9 °F53.1 °F45 %30.10 in10.0 miESE (110°)6.9 mphClear
8:53 PM69.1 °F52.0 °F54 %30.11 in10.0 miSE (130°)3.5 mphClear
9:53 PM66.0 °F53.1 °F63 %30.12 in10.0 miCalmClear
10:53 PM66.0 °F54.0 °F65 %30.12 in10.0 miNE (50°)5.8 mphClear
11:53 PM61.0 °F54.0 °F78 %30.12 in10.0 miNNE (30°)4.6 mphClear
Hourly data recorded from KYIP, located miles away from Livonia, Michigan







STORIES FROM OUR PARTNERS